CAPE
0 0 0 0 0 0 0 0 0 0 0 0 0 0 0 0 0 1 1 0 39 341 1377 1405 1589 1195 467 20 0 0 0 0 0 9 55 97 86 34 70 40 61 281 382 548 314 198 76 8 0
0 0 0 0 0 0 0 0 0 0 0 0 0 0 0 0 0 167 5 0 34 1178 1395 1248 1512 1232 452 2 0 0 0 0 0 0 0 2 0 11 23 35 112 255 551 636 342 141 19 0 0
0 0 0 0 0 0 0 0 0 0 0 0 0 0 0 264 277 136 390 69 610 1091 1307 1162 1442 1150 399 14 5 0 0 0 0 0 0 0 0 5 44 95 230 508 654 470 152 49 0 0 0
0 0 0 0 0 0 0 0 0 0 0 0 0 0 0 191 324 384 608 484 1022 1563 1156 1281 1420 975 396 44 14 0 0 0 0 67 0 0 0 0 69 228 333 380 216 123 46 0 0 0 0
0 0 0 0 0 0 0 0 0 0 0 0 0 0 0 61 1016 842 956 1133 1200 1291 1079 1476 1322 866 374 70 34 0 0 0 0 88 7 0 0 35 98 155 182 151 96 14 0 0 0 0 0
0 0 0 0 0 0 0 0 0 0 0 0 0 0 0 896 1065 1131 1156 945 1123 941 1118 1202 1214 819 436 164 131 1 0 0 0 18 9 0 138 219 247 221 166 114 32 0 0 0 0 0 0
0 0 0 0 0 0 0 0 0 0 0 0 0 0 0 1126 1427 1165 887 752 948 1188 1281 1282 1191 828 564 258 190 48 0 0 0 7 40 61 271 327 278 165 113 20 2 0 0 0 0 0 0
0 0 0 0 0 0 0 0 0 0 0 0 0 0 0 0 1153 891 730 733 1006 1312 1196 1232 1185 821 701 461 358 137 0 0 0 0 8 91 277 414 275 93 23 0 0 0 0 0 0 0 0
0 0 0 0 0 0 0 0 0 0 0 0 0 0 0 901 1524 857 919 779 848 1013 1070 1085 1151 865 832 650 618 276 37 0 0 0 6 124 297 420 341 93 33 11 0 0 0 0 0 0 0
0 0 0 0 0 0 0 0 0 0 0 0 0 0 0 0 297 880 903 802 682 799 834 804 971 633 679 721 756 423 187 50 13 16 56 77 136 146 158 49 55 38 4 0 0 0 0 0 0
0 0 0 0 0 0 0 0 0 0 0 0 0 0 0 0 0 8 0 0 553 874 820 879 904 775 695 667 690 372 185 88 56 27 32 6 39 86 53 10 39 28 17 3 0 0 0 0 0
0 0 0 0 0 0 0 0 0 0 0 0 0 0 0 0 0 0 0 0 0 351 887 888 751 623 689 559 474 249 96 49 26 25 26 9 6 6 1 0 0 23 36 0 0 0 0 0 0
0 0 0 0 0 0 0 0 0 0 0 0 0 0 0 0 0 0 0 0 0 45 917 1006 749 677 812 453 376 274 59 17 7 18 24 6 0 0 0 0 0 3 2 0 0 0 0 0 0
0 0 0 0 0 0 0 0 0 0 0 0 0 0 0 0 0 0 0 0 0 0 744 973 899 811 760 442 338 130 33 10 2 0 1 0 0 0 0 20 27 19 4 0 0 0 0 8 0
0 0 0 0 0 0 0 0 0 0 0 0 0 0 0 0 0 0 0 0 0 0 143 674 661 775 594 215 144 48 21 14 3 0 0 0 0 5 0 0 26 23 30 0 18 80 22 0 0
0 0 0 0 0 0 0 0 0 0 0 0 0 0 0 0 0 0 0 0 0 0 169 252 411 493 307 147 57 14 4 0 0 0 0 0 0 2 31 1 20 0 0 28 100 24 0 0 0
0 0 0 0 0 0 0 0 0 0 0 0 0 0 0 0 0 0 0 0 0 32 0 184 263 243 210 98 36 4 0 0 0 0 0 0 0 73 61 10 122 252 159 201 86 2 0 0 0
0 0 0 0 0 0 0 0 0 0 0 0 0 0 0 0 0 0 0 0 10 384 181 304 297 209 125 105 81 25 0 0 0 8 21 0 6 120 180 228 251 167 105 51 0 0 0 0 0
0 0 0 0 0 0 0 0 0 0 0 0 0 0 0 0 0 0 0 0 165 694 638 431 324 283 177 187 188 128 30 10 30 168 108 36 116 271 243 288 252 160 152 101 4 0 0 0 0
0 0 0 0 0 0 0 0 0 0 0 0 0 0 0 0 0 0 0 0 54 461 1019 460 369 247 317 337 512 418 259 227 142 333 245 89 332 402 376 374 281 86 31 0 0 0 0 0 0
0 0 0 0 0 0 0 0 0 0 0 0 0 0 0 0 0 0 0 0 81 581 905 878 563 295 238 449 702 624 547 461 351 368 397 264 533 646 468 220 43 1 1 0 0 0 0 0 0
0 0 0 0 0 0 0 0 0 0 0 0 0 0 0 0 0 0 0 0 0 498 660 1057 576 390 675 672 746 777 638 592 595 541 408 312 554 374 157 52 1 0 0 0 0 0 0 0 0
0 0 0 0 0 0 0 0 0 0 0 0 0 0 0 0 0 0 0 0 0 80 784 684 670 387 708 871 870 778 752 619 488 193 350 224 136 120 67 0 0 0 0 0 0 0 0 0 0
0 0 0 0 0 0 0 0 0 0 0 0 0 0 0 0 0 0 0 0 0 0 458 715 455 504 524 891 778 752 739 606 384 249 219 219 102 39 18 0 0 0 0 0 0 0 0 0 0
0 0 0 0 0 0 0 0 0 0 0 0 0 0 0 0 0 0 0 0 0 0 170 694 608 689 293 440 676 786 507 342 174 105 242 182 35 10 3 0 0 0 0 0 0 0 0 0 0
0 0 0 0 0 0 0 0 0 0 0 0 0 0 0 0 0 0 0 0 0 0 47 442 714 688 510 370 290 600 622 314 113 4 40 49 28 1 0 0 0 0 0 0 0 0 0 0 0
0 0 1 2 0 0 0 0 0 0 0 0 0 0 0 0 0 0 0 0 0 0 20 230 861 1001 433 401 303 184 469 213 137 17 0 22 0 0 0 0 0 0 0 0 0 0 0 0 0
0 1 2 6 0 0 0 0 0 0 0 0 0 0 0 0 0 0 0 0 0 0 0 378 589 1100 489 363 419 204 448 267 115 24 4 8 3 0 0 0 0 0 0 0 0 0 0 0 0
0 0 0 1 0 1 0 0 0 0 0 0 0 0 0 0 0 0 0 0 0 0 0 373 779 1203 1055 676 453 478 752 328 47 1 2 1 0 0 0 0 0 0 0 0 0 0 0 0 0
0 0 0 0 0 0 1 0 0 0 0 0 0 0 0 0 0 0 2 0 0 0 0 462 1262 1281 1411 1255 701 745 453 154 10 4 0 0 0 0 0 0 0 0 0 0 0 0 0 0 0
CIN
-0 -0 -0 -0 -0 -0 -0 -0 -0 -0 -0 -0 -0 -0 -0 -0 -12 -7 -18 -0 -99 -587 -410 -367 -237 -244 -347 -553 -0 -0 -0 -0 -0 -333 -571 -530 -506 -589 -558 -592 -536 -320 -247 -171 -268 -337 -420 -445 -0
-0 -0 -0 -0 -0 -0 -0 -0 -0 -0 -0 -0 -0 -0 -0 -0 -0 -196 -224 -0 -350 -483 -413 -430 -279 -258 -382 -559 -0 -0 -0 -0 -0 -0 -0 -296 -0 -595 -603 -589 -475 -352 -206 -166 -255 -370 -513 -0 -0
-0 -0 -0 -0 -0 -0 -0 -0 -0 -0 -0 -0 -0 -0 -0 -40 -128 -246 -432 -666 -597 -524 -457 -443 -311 -281 -408 -578 -424 -0 -0 -0 -0 -0 -0 -0 -0 -289 -553 -511 -381 -239 -188 -246 -369 -463 -0 -0 -0
-0 -0 -0 -0 -0 -0 -0 -0 -0 -0 -0 -0 -0 -0 -0 -95 -119 -297 -507 -602 -553 -504 -479 -430 -318 -348 -426 -577 -613 -0 -0 -0 -0 -567 -0 -0 -0 -0 -487 -386 -328 -304 -378 -420 -473 -0 -0 -0 -0
-0 -0 -0 -0 -0 -0 -0 -0 -0 -0 -0 -0 -0 -0 -0 -129 -259 -323 -458 -515 -523 -496 -463 -331 -317 -372 -472 -574 -537 -0 -0 -0 -0 -532 -634 -0 -0 -540 -464 -422 -406 -421 -449 -527 -0 -0 -0 -0 -0
-0 -0 -0 -0 -0 -0 -0 -0 -0 -0 -0 -0 -0 -0 -0 -228 -195 -399 -457 -519 -537 -535 -480 -384 -314 -377 -438 -495 -509 -122 -0 -0 -0 -622 -588 -60 -423 -380 -394 -389 -421 -431 -514 -0 -0 -0 -0 -0 -0
-0 -0 -0 -0 -0 -0 -0 -0 -0 -0 -0 -0 -0 -0 -0 -190 -302 -380 -459 -461 -476 -441 -392 -362 -343 -383 -390 -459 -505 -567 -0 -0 -0 -681 -569 -508 -370 -334 -386 -429 -458 -517 -607 -0 -0 -0 -0 -0 -0
-0 -0 -0 -0 -0 -0 -0 -0 -0 -0 -0 -0 -0 -0 -0 -0 -210 -398 -445 -422 -365 -341 -376 -361 -316 -368 -391 -443 -448 -512 -0 -0 -0 -0 -659 -511 -394 -327 -391 -486 -537 -5 -0 -0 -0 -0 -0 -0 -0
-0 -0 -0 -0 -0 -0 -0 -0 -0 -0 -0 -0 -0 -0 -0 -195 -170 -265 -355 -369 -351 -342 -382 -354 -307 -352 -325 -376 -363 -453 -596 -174 -0 -155 -666 -515 -414 -353 -368 -477 -527 -492 -0 -0 -0 -0 -0 -0 -0
-0 -0 -0 -0 -0 -0 -0 -0 -0 -0 -0 -0 -0 -0 -0 -0 -276 -137 -138 -281 -378 -371 -401 -415 -329 -407 -383 -350 -302 -406 -509 -554 -656 -677 -618 -589 -533 -517 -483 -544 -520 -512 -313 -0 -0 -0 -0 -0 -0
-0 -0 -0 -0 -0 -0 -0 -0 -0 -0 -0 -0 -0 -0 -0 -0 -0 -41 -20 -77 -41 -304 -360 -379 -335 -353 -371 -375 -346 -436 -507 -563 -625 -683 -678 -759 -676 -576 -591 -641 -551 -538 -492 -399 -0 -0 -0 -0 -0
-0 -0 -0 -0 -0 -0 -0 -0 -0 -0 -0 -0 -0 -0 -0 -0 -0 -0 -0 -0 -0 -79 -223 -317 -355 -370 -370 -399 -423 -500 -588 -633 -700 -714 -746 -888 -842 -858 -741 -0 -0 -567 -478 -0 -0 -0 -0 -0 -0
-0 -0 -0 -0 -0 -0 -0 -0 -0 -0 -0 -0 -0 -0 -0 -0 -0 -0 -0 -0 -0 -83 -0 -130 -383 -348 -312 -443 -450 -484 -628 -704 -744 -756 -779 -790 -0 -0 -0 -0 -0 -530 -484 -0 -0 -0 -0 -0 -0
-0 -0 -0 -0 -0 -0 -0 -0 -0 -0 -0 -0 -0 -0 -0 -0 -0 -0 -0 -0 -0 -0 -16 -0 -120 -315 -275 -403 -448 -551 -634 -698 -741 -190 -313 -249 -0 -0 -0 -544 -490 -487 -476 -0 -0 -0 -0 -150 -0
-0 -0 -0 -0 -0 -0 -0 -0 -0 -0 -0 -0 -0 -0 -0 -0 -0 -0 -0 -0 -0 -0 -218 -30 -48 -216 -350 -456 -458 -547 -635 -682 -475 -0 -0 -0 -55 -608 -0 -0 -459 -428 -371 -0 -172 -227 -206 -0 -0
-0 -0 -0 -0 -0 -0 -0 -0 -0 -0 -0 -0 -0 -0 -0 -0 -0 -0 -0 -0 -0 -0 -314 -110 -121 -234 -384 -465 -501 -538 -499 -0 -0 -0 -0 -0 -0 -619 -548 -76 -452 -0 -5 -144 -258 -267 -0 -0 -0
-0 -0 -0 -0 -0 -0 -0 -0 -0 -0 -0 -0 -0 -0 -0 -0 -0 -0 -0 -0 -0 -223 -0 -105 -128 -274 -400 -484 -526 -589 -0 -0 -0 -0 -0 -0 -0 -497 -493 -531 -368 -288 -317 -272 -292 -22 -0 -0 -0
-0 -0 -0 -0 -0 -0 -0 -0 -0 -0 -0 -0 -0 -0 -0 -0 -0 -0 -0 -0 -111 -102 -132 -187 -123 -264 -399 -465 -453 -530 -57 -0 -0 -439 -480 -0 -250 -454 -381 -349 -283 -336 -342 -361 -0 -0 -0 -0 -0
-0 -0 -0 -0 -0 -0 -0 -0 -0 -0 -0 -0 -0 -0 -0 -0 -0 -0 -0 -0 -142 -113 -53 -69 -177 -278 -351 -370 -319 -366 -477 -470 -388 -261 -270 -364 -368 -317 -323 -322 -294 -305 -280 -291 -144 -0 -0 -0 -0
-0 -0 -0 -0 -0 -0 -0 -0 -0 -0 -0 -0 -0 -0 -0 -0 -0 -0 -0 -0 -162 -126 -77 -134 -224 -372 -340 -341 -257 -278 -352 -335 -250 -160 -149 -251 -204 -203 -214 -243 -262 -348 -437 -0 -0 -0 -0 -0 -0
-0 -0 -0 -0 -0 -0 -0 -0 -0 -0 -0 -0 -0 -0 -0 -0 -0 -0 -0 -0 -154 -98 -120 -84 -213 -340 -384 -297 -180 -196 -182 -225 -162 -117 -78 -150 -119 -84 -116 -256 -396 -99 -529 -0 -0 -0 -0 -0 -0
-0 -0 -0 -0 -0 -0 -0 -0 -0 -0 -0 -0 -0 -0 -0 -0 -0 -0 -0 -0 -7 -64 -125 -99 -150 -246 -236 -216 -198 -158 -202 -180 -120 -139 -105 -125 -125 -99 -222 -323 -92 -0 -0 -0 -0 -0 -0 -0 -0
-0 -0 -0 -0 -0 -0 -0 -0 -0 -0 -0 -0 -0 -0 -0 -0 -0 -0 -0 -0 -0 -138 -87 -148 -133 -214 -204 -189 -198 -170 -117 -109 -131 -244 -123 -113 -176 -196 -284 -278 -0 -0 -0 -0 -0 -0 -0 -0 -0
-0 -0 -0 -0 -0 -0 -0 -0 -0 -0 -0 -0 -0 -0 -0 -0 -0 -0 -0 -0 -0 -0 -91 -124 -127 -142 -215 -147 -172 -166 -98 -98 -136 -66 -50 -90 -150 -273 -359 -0 -0 -0 -0 -0 -0 -0 -0 -0 -0
-0 -0 -0 -0 -0 -0 -0 -0 -0 -0 -0 -0 -0 -0 -0 -0 -0 -0 -0 -0 -0 -0 -126 -102 -121 -96 -205 -204 -172 -125 -146 -107 -66 -27 -28 -75 -158 -306 -409 -0 -0 -0 -0 -0 -0 -0 -0 -0 -0
-0 -0 -0 -0 -0 -0 -0 -0 -0 -0 -0 -0 -0 -0 -0 -0 -0 -0 -0 -0 -0 -0 -119 -70 -93 -94 -170 -224 -259 -130 -95 -142 -185 -74 -19 -38 -126 -191 -0 -0 -0 -0 -0 -0 -0 -0 -0 -0 -0
-0 -0 -7 -1 -0 -0 -0 -0 -0 -0 -0 -0 -0 -0 -0 -0 -0 -0 -0 -0 -0 -0 -127 -84 -63 -82 -177 -206 -206 -197 -106 -195 -211 -348 -0 -65 -0 -0 -0 -0 -0 -0 -0 -0 -0 -0 -0 -0 -0
-0 -8 -1 -1 -4 -0 -0 -0 -0 -0 -0 -0 -0 -0 -0 -0 -0 -0 -0 -0 -0 -0 -0 -82 -67 -54 -141 -209 -171 -228 -138 -188 -226 -257 -10 -112 -0 -0 -0 -0 -0 -0 -0 -0 -0 -0 -0 -0 -0
-0 -0 -0 -4 -0 -3 -0 -0 -0 -0 -0 -0 -0 -0 -0 -0 -0 -0 -0 -0 -0 -0 -0 -103 -71 -51 -89 -147 -141 -158 -67 -127 -176 -0 -0 -0 -0 -0 -0 -0 -0 -0 -0 -0 -0 -0 -0 -0 -0
-0 -0 -0 -0 -0 -0 -0 -0 -0 -0 -0 -0 -0 -0 -0 -0 -0 -0 -112 -0 -0 -0 -0 -115 -62 -44 -46 -85 -130 -90 -95 -163 -173 -0 -0 -0 -0 -0 -0 -0 -0 -0 -0 -0 -0 -0 -0 -0 -0
Wind_Speed
24 23 19 17 24 26 32 22 19 19 20 15 16 21 26 22 14 19 13 22 5 5 16 18 16 16 15 13 13 13 14 15 17 18 18 19 19 20 20 19 18 18 19 18 18 18 17 17 18
22 17 16 17 29 35 36 25 21 21 21 27 26 26 31 24 14 20 8 22 14 11 14 18 19 19 16 14 13 13 14 15 17 18 18 18 18 19 19 19 18 18 18 18 18 17 17 17 17
19 16 17 22 29 36 37 29 31 24 24 27 24 30 24 19 17 18 22 19 8 8 18 19 20 19 16 14 13 12 14 15 16 16 17 17 18 17 17 18 17 17 17 17 17 17 16 16 16
17 17 21 30 33 29 28 27 31 34 25 27 25 27 27 23 17 12 2 10 7 15 18 20 20 19 17 15 14 14 14 14 15 15 15 16 17 17 16 16 15 16 16 16 16 16 15 15 15
17 19 28 33 35 31 28 27 29 33 28 30 29 24 26 19 11 5 6 9 10 10 12 15 18 18 16 16 16 15 15 15 15 15 15 16 16 16 15 15 15 16 15 16 15 14 14 15 14
21 22 33 40 36 31 30 29 31 30 27 25 26 27 21 17 9 4 7 6 9 13 16 15 16 16 16 17 16 15 15 15 15 15 15 15 14 14 14 14 14 14 15 14 14 13 14 13 13
23 27 36 37 37 32 28 25 29 27 28 25 28 24 23 22 15 5 9 8 8 10 12 14 13 14 15 15 15 15 16 15 15 15 14 14 14 13 12 12 12 13 12 12 13 13 13 12 13
21 26 36 35 37 37 29 34 29 27 29 28 24 23 28 34 19 11 9 9 10 10 11 12 11 12 11 12 13 15 16 16 16 14 15 14 14 13 12 11 11 11 11 11 11 12 12 12 12
20 32 38 37 36 38 39 40 31 30 33 31 25 25 27 23 11 14 12 12 14 13 12 12 12 11 10 10 11 14 14 15 15 13 14 13 11 11 12 10 9 10 10 10 11 11 11 12 13
24 33 36 31 36 42 43 43 44 39 40 33 32 29 25 19 17 17 19 18 16 16 15 14 13 13 12 9 9 8 10 11 11 9 11 10 12 13 11 11 10 10 9 10 10 11 12 14 16
26 34 34 36 37 37 39 41 37 38 42 35 34 32 28 23 21 25 23 19 31 24 19 16 15 14 13 11 10 7 6 7 7 7 8 10 12 9 7 8 7 8 9 10 12 14 15 16 19
32 31 31 35 36 38 41 39 40 36 36 33 32 31 29 27 23 26 29 25 28 36 28 20 17 16 15 12 10 9 8 6 5 4 8 9 8 8 6 5 6 8 10 13 14 15 17 19 20
29 32 36 37 39 40 40 42 43 42 38 33 35 34 33 30 26 24 26 29 25 31 38 36 18 18 17 14 12 10 9 8 6 5 4 3 3 2 2 4 7 10 11 13 17 19 20 21 22
31 38 40 38 41 39 41 46 43 43 37 39 38 39 39 35 29 23 26 34 41 37 37 40 29 18 19 18 16 13 12 12 9 7 5 3 2 1 3 5 8 8 11 15 17 19 21 19 16
29 38 39 36 33 39 39 48 48 46 41 45 42 44 43 39 32 26 24 21 35 33 34 27 35 24 21 20 19 17 15 17 14 12 7 4 4 8 5 7 10 15 13 14 16 16 16 17 17
28 26 31 29 34 30 33 47 47 45 46 48 46 45 45 43 37 30 27 26 26 28 26 28 34 29 23 22 21 19 18 17 16 12 10 7 6 9 8 9 11 12 12 13 13 14 17 19 19
24 31 33 32 28 31 31 46 41 42 43 46 41 40 42 41 38 31 30 27 23 23 34 18 33 22 20 20 20 19 19 19 19 16 12 9 8 9 7 8 9 9 11 12 13 16 18 20 21
35 34 31 36 29 36 40 44 41 39 38 43 45 44 45 45 42 32 29 27 23 20 25 33 21 17 18 18 18 17 17 20 21 18 15 14 11 8 5 6 8 9 11 13 16 17 19 21 22
38 35 34 35 27 24 40 42 44 41 41 41 44 43 46 48 44 32 28 26 20 18 22 30 26 21 18 17 17 15 16 19 20 20 17 15 11 7 5 5 7 10 12 14 16 18 20 24 23
35 34 37 34 28 24 14 28 47 43 43 45 45 45 44 47 46 38 31 27 24 20 20 25 28 24 23 20 20 16 15 16 18 17 17 15 11 8 5 5 7 10 13 17 18 18 19 21 22
38 30 30 25 38 28 21 28 16 42 38 40 45 45 43 46 47 41 34 29 26 22 20 24 28 28 25 20 18 15 17 12 20 18 17 16 13 9 6 6 7 10 14 17 19 19 18 16 20
41 23 27 29 28 22 22 45 27 40 45 43 48 50 50 50 49 44 39 32 30 28 23 24 28 28 25 24 19 16 19 18 19 12 16 14 13 9 8 6 8 11 15 18 18 18 17 17 17
39 28 20 23 28 29 23 25 27 23 41 44 44 47 48 49 48 48 43 39 33 30 29 25 26 27 25 22 22 16 19 19 22 21 21 19 14 7 6 6 8 11 14 16 18 18 18 18 19
31 32 26 25 27 25 27 17 37 24 15 26 24 33 43 45 44 45 42 40 36 33 30 29 28 29 29 25 21 17 17 15 13 11 11 16 13 8 7 7 9 11 13 15 17 17 18 19 21
30 32 32 31 25 29 24 18 26 20 20 22 23 34 39 41 40 42 44 42 37 34 32 32 31 33 32 28 22 17 15 12 11 8 19 11 14 7 6 7 9 10 13 14 15 16 18 19 21
26 18 16 20 31 38 29 23 29 14 20 26 28 36 36 38 38 41 44 43 40 36 35 31 35 36 33 28 23 19 17 12 12 15 11 13 6 4 4 8 9 10 12 13 13 15 17 20 21
19 16 14 18 18 29 31 34 36 36 35 27 24 23 28 35 38 40 41 45 42 40 36 34 35 37 32 30 25 21 18 15 14 16 12 9 6 4 5 8 9 8 11 12 13 15 17 19 21
8 13 19 16 20 19 22 31 30 23 20 19 23 28 31 35 38 39 37 42 44 43 40 37 32 36 34 30 27 22 17 13 10 10 9 10 3 4 9 11 8 8 10 11 12 15 17 19 21
18 15 16 19 20 25 32 29 25 29 23 25 30 31 35 39 38 38 33 28 35 42 42 38 32 34 35 31 27 23 18 13 12 11 10 11 3 5 10 11 9 9 9 11 13 15 16 19 22
10 11 15 15 17 22 33 47 38 28 25 32 34 39 39 37 41 39 37 36 33 40 41 39 35 33 34 29 24 23 20 16 14 12 12 7 4 4 6 7 8 9 9 11 13 15 16 19 23
Wind_Direction
301 297 297 296 278 275 265 279 289 290 300 309 318 310 306 299 289 320 50 133 247 136 129 135 135 131 125 117 109 103 99 101 102 103 101 101 102 100 98 95 93 91 89 85 81 77 74 72 75
302 304 301 295 272 265 264 275 280 286 293 288 305 304 299 293 288 302 69 144 121 116 134 136 137 135 131 124 118 112 107 109 109 108 106 104 103 101 99 98 96 93 92 88 83 78 76 76 75
303 303 291 283 274 267 269 274 271 287 296 291 302 301 303 294 297 293 242 137 133 128 136 138 138 137 134 129 124 117 115 115 112 111 109 106 104 101 99 99 96 92 90 87 85 83 79 75 72
302 295 290 274 271 279 280 277 275 278 291 292 299 298 299 296 298 287 301 134 146 133 141 140 140 139 137 134 131 128 124 121 119 114 112 109 108 105 100 97 94 93 92 89 88 85 77 71 69
301 294 277 275 273 278 282 284 279 276 285 288 292 298 296 300 296 285 175 148 154 153 148 146 143 142 141 138 137 135 131 130 128 122 118 115 112 107 101 97 97 96 92 90 85 76 72 75 76
287 288 274 270 274 278 280 283 283 280 282 287 295 296 294 297 285 265 214 178 160 152 150 154 151 146 144 143 141 139 136 134 132 130 124 121 116 111 105 101 96 94 91 85 79 75 76 79 68
284 280 274 274 275 278 282 289 284 285 280 282 293 289 290 292 285 232 220 238 195 173 168 158 160 154 148 146 143 141 138 137 135 132 128 127 122 116 107 100 92 89 79 79 79 73 75 68 49
290 284 276 276 274 275 281 282 286 285 280 288 293 287 287 285 273 245 216 228 221 204 182 174 175 167 163 151 148 144 141 140 138 135 134 133 129 122 112 102 92 87 78 74 69 66 59 60 50
293 280 276 277 278 276 279 278 282 285 278 282 283 290 296 301 262 241 225 233 229 221 202 190 181 183 178 165 157 147 144 142 139 136 137 135 129 124 117 102 88 88 78 73 71 59 57 46 37
287 280 280 282 284 281 278 276 273 276 275 276 275 283 295 297 278 259 264 243 220 222 214 206 196 187 183 190 176 168 148 142 138 139 138 136 133 129 119 111 100 92 70 66 60 43 36 22 12
292 284 289 285 286 287 282 279 278 276 269 272 271 276 284 288 279 266 269 275 256 245 230 219 213 201 190 191 192 195 178 155 147 143 140 135 131 123 106 98 78 61 58 39 18 8 7 5 360
291 291 292 289 290 287 282 282 275 275 273 275 271 273 278 280 282 276 264 269 270 252 242 230 219 214 207 203 192 185 194 199 199 193 141 134 128 125 103 72 34 18 7 360 357 360 355 353 358
293 294 294 292 289 287 284 278 274 271 275 276 271 269 273 274 280 282 273 256 278 272 244 239 219 219 217 208 212 205 208 218 211 193 170 197 144 130 34 26 2 360 357 351 346 341 343 347 355
301 296 293 293 290 288 283 278 277 271 277 272 272 266 266 270 276 279 284 258 252 261 241 236 238 218 224 227 225 224 228 232 232 230 217 190 148 274 63 352 358 9 356 345 341 338 343 356 13
314 300 296 295 296 289 289 276 272 274 277 270 268 265 264 266 270 272 276 268 256 261 244 245 236 234 224 227 230 234 234 240 244 249 250 238 270 287 321 336 338 325 343 347 353 4 10 12 12
319 316 304 307 302 297 294 278 279 279 274 270 266 263 261 261 266 270 271 268 270 261 256 244 232 231 228 229 233 237 240 244 250 255 257 252 268 290 313 324 325 341 355 4 13 14 6 3 0
320 306 305 308 315 300 296 284 284 284 276 268 265 262 259 261 264 271 268 271 276 262 235 236 232 223 224 229 233 239 242 245 248 254 256 252 268 293 315 329 350 10 6 14 12 2 359 357 356
304 306 310 305 318 302 294 287 286 285 282 272 266 262 258 258 260 272 269 271 269 255 234 232 201 204 214 223 232 240 243 246 247 253 257 256 267 287 313 344 357 9 11 8 3 2 2 357 353
277 262 257 300 321 324 296 291 283 283 281 276 268 266 260 255 257 267 271 267 267 256 234 228 221 213 208 212 218 232 237 242 246 251 255 254 265 274 312 345 354 353 0 2 1 0 357 352 355
273 260 280 309 317 322 265 250 266 281 278 273 271 266 263 255 255 261 267 265 260 253 235 230 225 218 218 223 238 237 231 242 248 248 255 254 260 270 297 339 346 355 3 360 1 2 1 3 5
295 314 313 290 305 313 311 254 265 278 282 279 270 267 265 256 253 256 261 261 258 250 239 227 226 225 229 223 231 236 245 247 245 250 254 254 259 270 287 322 340 353 1 1 1 2 6 16 15
269 321 315 310 310 306 320 266 245 284 274 274 268 265 262 258 252 253 256 259 256 251 244 231 225 229 234 232 228 229 238 233 245 242 252 252 255 265 285 315 339 351 357 0 6 12 14 14 12
307 320 313 312 309 303 306 307 304 308 279 275 273 265 263 259 254 252 252 254 255 253 245 238 229 232 231 226 237 241 238 243 251 255 248 249 243 254 284 316 340 347 354 6 11 15 10 6 3
327 327 319 311 306 285 303 293 252 306 316 305 294 285 263 261 259 256 253 250 251 251 246 242 232 234 233 234 236 235 237 239 247 242 238 232 240 248 281 312 330 344 356 0 12 10 8 7 5
329 329 319 311 305 298 306 292 229 303 308 308 304 269 256 262 262 260 254 247 246 247 244 240 234 233 234 237 236 228 226 243 249 250 215 228 244 259 281 315 322 342 355 2 6 8 5 8 8
325 328 328 320 305 298 304 298 294 305 303 296 291 277 265 256 267 267 256 248 243 243 242 239 235 232 234 231 224 224 229 232 235 242 270 254 246 275 332 319 324 349 6 10 7 6 11 12 12
342 335 335 319 313 304 296 292 291 290 286 293 296 298 289 279 272 269 265 248 241 239 240 237 236 232 230 228 225 232 237 234 240 254 236 220 158 45 63 81 73 24 11 11 7 14 16 16 16
323 338 333 327 323 320 316 296 290 302 304 302 297 296 291 285 281 271 272 250 242 239 237 235 235 229 227 224 223 225 230 235 222 215 215 202 192 64 98 93 60 21 13 12 21 21 21 19 17
340 339 333 321 311 312 305 304 302 293 293 298 292 296 293 280 272 274 268 258 245 236 233 231 231 228 224 219 223 221 223 215 201 198 177 191 255 106 100 89 63 38 23 25 26 22 24 19 15
343 332 335 324 324 310 302 267 284 297 295 290 293 291 293 290 273 272 266 257 249 237 229 227 227 224 218 213 209 213 216 219 213 191 184 170 161 124 106 80 58 50 40 27 21 25 22 17 12